Hourly Data Report for October 04, 2017

All times are specified in Local Standard Time (LST). Add 1 hour to adjust for Daylight Saving Time where and when it is observed.

SARNIA
ONTARIO

42°59'58.000" N
82°18'32.000" W
181.40 m
6127510
71704
YZR

Download Data

Hourly Data (October 2017)
Hourly Data Report for October 4, 2017
Temp Definition
°C
Dew Point Temp Definition
°C
Rel Hum Definition
%
Wind Dir Definition
10's deg

Wind Spd Definition
km/h
Visibility Definition
km
Stn Press Definition
kPa
Hmdx Definition


Wind Chill Definition


Weather Definition


TIME
00:00 Legend Double Dagger 21.1 14.8 67 20 13 16.1 100.41 25   LegendNANA
01:00 Legend Double Dagger 21.0 14.5 66 19 18 16.1 100.39 25   LegendNANA
02:00 Legend Double Dagger 20.9 14.6 67 20 15 16.1 100.37 25   LegendNANA
03:00 Legend Double Dagger 20.8 14.8 68 19 15 16.1 100.32 25   LegendNANA
04:00 Legend Double Dagger 20.8 15.2 70 19 13 16.1 100.28 25   LegendNANA
05:00 Legend Double Dagger 20.5 15.8 74 20 13 16.1 100.27 25   LegendNANA
06:00 Legend Double Dagger 19.9 15.8 77 20 13 16.1 100.27     LegendNANA
07:00 Legend Double Dagger 20.2 16.2 77 20 17 16.1 100.20 25   LegendNANA
08:00 Legend Double Dagger 21.7 16.8 73 22 18 16.1 100.21 27   LegendNANA
09:00 Legend Double Dagger 22.7 17.7 73 22 18 16.1 100.18 28   LegendNANA
10:00 Legend Double Dagger 23.4 18.5 74 22 21 16.1 100.15 30   LegendNANA
11:00 Legend Double Dagger 24.1 18.9 72 25 26 16.1 100.09 31   LegendNANA
12:00 Legend Double Dagger 25.1 19.1 69 26 22 16.1 100.04 32   LegendNANA
13:00 Legend Double Dagger 25.1 18.8 68 24 32 16.1 99.95 32   LegendNANA
14:00 Legend Double Dagger 25.0 19.5 71 24 26 16.1 99.91 32   LegendNANA
15:00 Legend Double Dagger 24.0 19.5 76 25 22 16.1 99.85 31   LegendNANA
16:00 Legend Double Dagger 23.9 19.3 75 25 21 16.1 99.86 31   LegendNANA
17:00 Legend Double Dagger 24.1 19.1 73 25 15 16.1 99.86 31   LegendNANA
18:00 Legend Double Dagger 23.0 17.6 71 28 17 16.1 99.89 29   LegendNANA
19:00 Legend Double Dagger 21.5 17.2 76 26 11 16.1 99.95 27   LegendNANA
20:00 Legend Double Dagger 17.5 16.9 96 2 17 2.0 100.04     Fog
21:00 Legend Double Dagger 16.7 16.1 96 2 5 16.1 100.04     LegendNANA
22:00 Legend Double Dagger 15.8 15.7 99   0 8.1 100.03     Fog
23:00 Legend Double Dagger 14.7 14.6 99 LegendMM 4 14.5 100.05     LegendNANA

Notes on Data Quality.

Legend

  • E = Estimated
  • M = Missing
  • NA = Not Available
  • ‡ = Partner data that is not subject to review by the National Climate Archives
Date modified: